STARLINK-35678, 66971

Orbit data source: Space-Track

STARLINK-35678, 66971 is a payload satellite owned by SpaceX/Seattle (US) in LEO that was launched on Mon, 08 Dec 2025 UTC via an FALCON 9 launch vehicle from the Air Force Eastern Test Range (AFETR). Payload-class satellites include a variety of spacecraft equipped with specific instruments for various scientific and technological missions. These include communications satellites like Starlink; space stations such as the ISS; scientific satellites like the Hubble; Earth observation satellites from companies like Planet Labs, Umbra, and HawkEye 360; GPS; miniature CubeSats for education and research; and military/defense satellites.

Loading next visibility...
Identifier
66971, 2025-288N
Orbit
LEO
Country
Flag of USUS
Related business
Manufacturer
SpaceX/Seattle
Mission
Operational Commercial Communications
Bus & Motor
STARLINK V2MO, Unknown motor
Mass
575 kg wet, ~530 kg dry
Launch date (UTC)
2025-12-08 (7 months ago)
Launch vehicle
FALCON 9
Launch site
Air Force Eastern Test Range (AFETR)
Object type
Payload
Rocket body
Debris
Shape & HBR
Box + 2 Pan, 17.7 m
Radar Cross Section
36.964 m², Large (>1 m²)

Expand to show TLE details & history
Last TLE update: 1 day ago

TLE from 1 day ago
0 STARLINK-35678
1 66971U 25288N   26176.87891939  .00032450  00000-0  11826-2 0  9994
2 66971  43.0009 132.4454 0001407 270.2766  89.7925 15.27606154 31834
Epoch: 2026-06-25T21:05Z
TLE epoch observation values (Epoch: 2026-06-25T21:05:38.635Z)
Latitude
0.00003°
Longitude
-97.981°
Altitude
482.743 km
Speed
7.626 km/s
True Right ascension
08h 49m 46s
True Declination
0° 00' 00"
Sunlit
Object was in daylight at epoch
Visualization orbit readout
Latitude
Unknown
Longitude
Unknown
Altitude
Unknown
Speed
Unknown
Apparent Right ascension
Unknown
Apparent Declination
Unknown
Sunlit
N/A
Visualization observer readout
Local Sidereal Time
12:09:01
Azimuth
Unknown
Elevation
Unknown
Doppler factor
Unknown
Orbital elements
Apogee altitude
485.881 km
Perigee altitude
483.95 km
Semi-major axis
6,863.053 km
Eccentricity
0.00014
Inclination
43.0009°
RAAN
132.4454°
Arg. of periapsis
270.2766°
True anomaly
89.80862°
Mean anomaly
89.7925°
Eccentric anomaly
89.80056°
Mean motion
3.8174 °/min
Orbital period
94.31 mins
BSTAR
0.0011826
Loading maneuver chart data...
Computing Atmospheric mass density...
Loading historical data...
Loading historical data...
Loading historical data...
Loading historical data...
Loading historical data...
Loading historical data...
Loading historical data...

Documentation

Showing up to 5 results
|